Location: Unspecified
(43.4680°N, 87.1740°E)
Time: 21:37:02
(UTC+00:00)

Cosmos 2026 Rocket - Pass Details

Date: 17 April 2021
Orbit: 939 x 1001 km, 82.9° (Epoch: 12 May)

Event Time Altitude Azimuth Distance (km) Brightness Sun altitude
Rises 14:04:28 0° 355° (N) 3,611 7.5 -12.2°
Reaches altitude 10° 14:07:01 10° 360° (N) 2,663 6.7 -12.6°
Maximum altitude 14:13:00 58° 79° (E) 1,094 4.0 -13.6°
Enters shadow 14:18:22 13° 156° (SSE) 2,444 5.6 -14.4°
